www.pogodaiklimat.ru
ПОГОДА в Томастауне
Время
(UTC), дата
01 29.11
02 29.11
03 29.11
04 29.11
05 29.11
06 29.11
07 29.11
08 29.11
09 29.11
10 29.11
11 29.11
12 29.11
13 29.11
14 29.11
15 29.11
16 29.11
17 29.11
18 29.11
19 29.11
20 29.11
21 29.11
22 29.11
23 29.11
00 30.11
01 30.11
02 30.11
03 30.11
04 30.11
05 30.11
06 30.11
07 30.11
08 30.11
09 30.11
10 30.11
11 30.11
12 30.11
13 30.11
14 30.11
15 30.11
16 30.11
17 30.11
18 30.11
19 30.11
20 30.11
21 30.11
22 30.11
23 30.11
00 1.12
01 1.12
02 1.12
03 1.12
04 1.12
05 1.12
06 1.12
07 1.12
08 1.12
09 1.12
10 1.12
11 1.12
12 1.12
13 1.12
14 1.12
15 1.12
16 1.12
17 1.12
18 1.12
19 1.12
20 1.12
21 1.12
22 1.12
23 1.12
00 2.12
01 2.12
02 2.12
03 2.12
04 2.12
05 2.12
06 2.12
07 2.12
08 2.12
09 2.12
10 2.12
11 2.12
12 2.12
13 2.12
14 2.12
15 2.12
16 2.12
17 2.12
18 2.12
19 2.12
20 2.12
21 2.12
22 2.12
23 2.12
00 3.12
01 3.12
02 3.12
03 3.12
04 3.12
05 3.12
06 3.12
07 3.12
08 3.12
09 3.12
10 3.12
11 3.12
12 3.12
13 3.12
14 3.12
15 3.12
16 3.12
17 3.12
18 3.12
19 3.12
20 3.12
21 3.12
22 3.12
23 3.12
00 4.12
01 4.12
02 4.12
03 4.12
04 4.12
05 4.12
06 4.12
07 4.12
08 4.12
09 4.12
10 4.12
11 4.12
12 4.12
13 4.12
14 4.12
15 4.12
16 4.12
17 4.12
18 4.12
19 4.12
20 4.12
21 4.12
22 4.12
23 4.12
00 5.12
01 5.12
02 5.12
03 5.12
04 5.12
05 5.12
06 5.12
07 5.12
08 5.12
09 5.12
10 5.12
11 5.12
12 5.12
13 5.12
14 5.12
15 5.12
16 5.12
17 5.12
18 5.12
19 5.12
20 5.12
21 5.12
22 5.12
23 5.12
00 6.12
Ветер
(напр.,м/с)
Видим. Явления Облачность Т
(С)
Тd
(С)
f
(%)
Тe
(С)
Тes
(С)
Комфортность P
(гПа)
Po
(гПа)
Тmin
(С)
Tmax
(С)
R
(мм)
R24
(мм)
S
(см)
С 1 40 км н/о +0.8 -0.5 91 0 0 по сезону 1011.0 1001.9
С 1 30 км н/о +0.1 -0.5 96 -1 -1 по сезону 1011.6 1002.5
СЗ 2 24 км н/о -0.4 -0.8 97 -4 -4 прохладно 1012.4 1003.3
СЗ 2 19 км н/о +0.1 -0.2 98 -3 -3 прохладно 1013.0 1004.0
С 1 24 км н/о -0.4 -0.8 97 -3 -3 прохладно 1013.8 1004.7
СЗ 2 30 км н/о 0.0 -0.4 97 -3 -3 прохладно 1014.4 1005.3 -1.0 0.2 0.2
СЗ 1 14 км н/о +0.2 -0.1 98 -2 -2 по сезону 1015.1 1006.0
С 1 21 км н/о -0.2 -0.5 98 -3 -3 прохладно 1015.8 1006.7
З 1 24 км н/о +0.3 0.0 98 -1 -1 по сезону 1016.5 1007.4
З 1 35 км н/о +1.0 +0.6 97 -1 -1 по сезону 1017.2 1008.1
СЗ 1 22 км н/о +3.0 +2.0 93 +1 +1 по сезону 1017.6 1008.6
С 1 30 км н/о +5.5 +1.9 78 +6 +6 тепло 1017.8 1008.8
В 2 45 км н/о +7.2 +1.6 68 +6 +6 тепло 1017.8 1008.9
ЮВ 2 50 км н/о +7.1 +2.6 73 +6 +6 тепло 1017.8 1008.9
В 3 40 км н/о +6.2 +0.9 69 +4 +4 по сезону 1017.9 1009.0
В 2 50 км н/о +4.2 +0.6 77 +2 +2 по сезону 1018.3 1009.3
В 3 50 км н/о +2.8 +0.7 86 -1 -1 по сезону 1018.5 1009.5
В 4 45 км н/о +2.6 +0.8 88 -2 -2 по сезону 1018.7 1009.7 +7.6
В 3 30 км н/о +2.7 +1.2 90 -2 -2 по сезону 1019.0 1009.9
В 2 35 км н/о +2.7 +0.8 87 -1 -1 по сезону 1018.8 1009.7
В 3 40 км н/о +2.3 +0.4 87 -2 -2 по сезону 1018.8 1009.8
ЮВ 3 30 км н/о +1.5 -0.4 87 -3 -3 прохладно 1019.1 1010.0
В 3 50 км н/о +2.2 +0.2 87 -2 -2 по сезону 1019.1 1010.0
В 4 50 км н/о +3.4 +0.5 81 -1 -1 по сезону 1018.7 1009.6
В 4 50 км н/о +2.9 +0.2 82 -2 -2 по сезону 1018.1 1009.0
В 5 45 км н/о +2.5 +0.5 87 -3 -3 прохладно 1018.1 1009.0
В 4 40 км н/о +2.0 +0.5 90 -3 -3 прохладно 1018.4 1009.3
В 4 45 км н/о +2.3 +0.7 89 -3 -3 прохладно 1018.3 1009.3
В 3 45 км н/о +1.9 +0.5 90 -3 -3 прохладно 1018.4 1009.3
В 4 35 км н/о +2.6 +0.7 87 -2 -2 по сезону 1018.0 1009.0 +1.3
В 4 50 км н/о +2.2 +0.3 87 -3 -3 прохладно 1018.1 1009.1
В 3 45 км н/о +2.3 +0.5 88 -2 -2 по сезону 1018.6 1009.6
В 3 35 км н/о +1.9 +0.4 90 -2 -2 по сезону 1018.9 1009.9
С 2 28 км н/о +2.1 +0.6 90 -1 -1 по сезону 1019.9 1010.8
В 2 24 км н/о +3.9 +2.3 89 +2 +2 по сезону 1020.2 1011.2
В 4 21 км н/о +5.3 +2.9 84 +2 +2 по сезону 1020.3 1011.4
В 4 29 км н/о +6.0 +3.5 84 +2 +2 по сезону 1020.2 1011.3
В 4 28 км н/о +6.7 +3.6 81 +3 +3 по сезону 1020.0 1011.1
В 5 24 км н/о +6.3 +3.4 82 +2 +2 по сезону 1020.1 1011.2
В 4 22 км н/о +5.1 +2.8 85 +1 +1 по сезону 1020.6 1011.6
В 4 19 км н/о +4.1 +2.2 87 -0 -0 по сезону 1021.1 1012.1
В 1 28 км н/о +3.5 +1.7 88 +2 +2 по сезону 1021.9 1012.9 +7.2
СВ 3 26 км н/о +2.9 +1.4 90 -1 -1 по сезону 1022.9 1013.8
СВ 4 27 км н/о +2.4 +1.2 92 -2 -2 по сезону 1023.2 1014.2
СВ 2 35 км н/о +2.7 +1.3 90 -1 -1 по сезону 1023.7 1014.6
Ю 1 26 км н/о +2.4 +1.2 92 +2 +2 по сезону 1024.1 1015.0
СВ 2 11 км дым н/о +1.5 -0.4 87 -2 -2 по сезону 1024.4 1015.3
ЮВ 2 21 км н/о +2.0 +1.1 94 -1 -1 по сезону 1024.4 1015.3
СЗ 3 16 км н/о +1.8 +1.2 96 -3 -3 прохладно 1025.0 1015.9
СЗ 2 13 км н/о +1.7 +1.0 95 -1 -1 по сезону 1025.2 1016.1
СЗ 2 16 км н/о +2.0 +1.3 95 -2 -2 по сезону 1025.9 1016.8
С 2 11 км н/о +2.2 +1.3 94 -1 -1 по сезону 1026.1 1017.0
С 2 18 км н/о +2.4 +1.6 94 -0 -0 по сезону 1026.2 1017.1
С 2 19 км н/о +2.5 +1.5 93 -1 -1 по сезону 1026.6 1017.5 +1.3
СЗ 3 17 км н/о +2.6 +1.7 94 -2 -2 по сезону 1027.2 1018.0
СЗ 2 21 км н/о +1.9 +1.1 94 -2 -2 по сезону 1028.0 1018.9
С 2 18 км н/о +1.5 +0.7 94 -1 -1 по сезону 1028.7 1019.6
З 2 15 км н/о +2.0 +1.4 96 -1 -1 по сезону 1029.5 1020.4
штиль 0 15 км н/о +2.9 +1.7 92 +2 +2 по сезону 1030.0 1020.9
штиль 0 22 км н/о +4.5 +2.2 85 +4 +4 по сезону 1029.9 1020.9
С 2 50 км н/о +5.9 +2.5 79 +4 +4 по сезону 1030.2 1021.2
СЗ 3 45 км н/о +6.5 +2.9 78 +4 +4 по сезону 1030.4 1021.4
С 4 50 км н/о +6.3 +2.4 76 +3 +3 по сезону 1030.7 1021.7
СЗ 2 50 км н/о +5.3 +2.1 80 +3 +3 по сезону 1031.5 1022.5
СЗ 2 50 км н/о +4.7 +2.4 85 +2 +2 по сезону 1032.1 1023.1
СЗ 2 27 км н/о +4.0 +1.9 86 +2 +2 по сезону 1032.6 1023.5 +7.2
СВ 1 26 км н/о +3.0 +1.5 90 +1 +1 по сезону 1032.6 1023.4
СЗ 1 27 км н/о +2.1 +1.3 94 +2 +2 по сезону 1032.3 1023.2
СЗ 1 18 км н/о +1.4 +0.8 96 +1 +1 по сезону 1032.7 1023.5
З 2 22 км н/о +0.8 +0.4 97 -2 -2 по сезону 1033.0 1023.8
З 1 16 км н/о +0.2 -0.2 97 -2 -2 по сезону 1033.2 1023.9
Ю 1 13 км н/о -0.2 -0.5 98 -1 -1 по сезону 1033.3 1024.0
ЮВ 1 50 км н/о +0.8 +0.5 98 0 0 по сезону 1033.4 1024.2
Ю 2 20 км н/о 0.0 -0.4 97 -3 -3 прохладно 1033.3 1024.0
ЮВ 2 35 км н/о +0.4 0.0 97 -3 -3 прохладно 1033.1 1023.9
ЮВ 2 35 км н/о +0.7 +0.1 96 -3 -3 прохладно 1032.8 1023.6
ЮВ 2 50 км н/о +1.0 +0.3 95 -2 -2 по сезону 1032.5 1023.3
Ю 2 50 км н/о +1.9 +0.8 92 -1 -1 по сезону 1032.4 1023.2 -0.9
ЮВ 2 45 км н/о +1.7 +0.3 90 -1 -1 по сезону 1032.3 1023.1
Ю 2 50 км н/о +2.8 +1.7 92 -1 -1 по сезону 1031.8 1022.7
ЮВ 2 50 км н/о +2.3 +1.0 91 -0 -0 по сезону 1032.4 1023.2
ЮВ 1 40 км н/о +2.6 +1.5 92 +1 +1 по сезону 1032.5 1023.3
ЮВ 2 45 км н/о +4.0 +2.4 89 +1 +1 по сезону 1032.4 1023.3
Ю 3 40 км н/о +5.2 +3.2 87 +2 +2 по сезону 1031.7 1022.7
Ю 3 50 км н/о +4.9 +2.7 86 +1 +1 по сезону 1031.1 1022.0
Ю 3 40 км н/о +4.7 +2.8 87 +1 +1 по сезону 1030.6 1021.6
Ю 3 40 км н/о +4.9 +3.5 91 +2 +2 по сезону 1030.0 1021.0
Ю 2 35 км н/о +5.0 +3.5 90 +3 +3 по сезону 1029.8 1020.8
ЮВ 1 28 км н/о +4.4 +3.4 93 +3 +3 по сезону 1029.5 1020.4
Ю 2 45 км н/о +5.2 +4.0 92 +3 +3 по сезону 1029.4 1020.3 +5.3
Ю 3 35 км н/о +5.3 +4.0 91 +2 +2 по сезону 1029.3 1020.3
Ю 3 23 км н/о +5.1 +4.2 94 +2 +2 по сезону 1029.4 1020.4
Ю 3 24 км н/о +4.9 +4.0 94 +1 +1 по сезону 1029.1 1020.0
Ю 2 19 км н/о +4.4 +3.5 94 +1 +1 по сезону 1028.8 1019.8
ЮЗ 3 15 км н/о +4.0 +3.3 95 0 0 по сезону 1028.8 1019.7
Ю 2 15 км н/о +4.0 +3.4 96 +1 +1 по сезону 1028.5 1019.5
ЮВ 2 13 км н/о +4.1 +3.5 96 +1 +1 по сезону 1027.9 1018.8
ЮВ 3 15 км н/о +4.1 +3.3 95 0 0 по сезону 1027.2 1018.1
Ю 3 18 км н/о +4.0 +3.6 97 0 0 по сезону 1026.6 1017.5
Ю 3 14 км н/о +3.8 +3.1 95 -0 -0 по сезону 1025.8 1016.7
ЮВ 3 20 км н/о +3.5 +2.9 96 -1 -1 по сезону 1025.2 1016.1
Ю 5 24 км н/о +3.9 +3.1 95 -1 -1 по сезону 1024.7 1015.7 +3.0
Ю 5 22 км н/о +4.0 +3.0 93 -1 -1 по сезону 1024.3 1015.2
Ю 6 16 км н/о +3.7 +2.7 93 -2 -2 по сезону 1024.1 1015.0
Ю 5 19 км н/о +3.9 +2.9 93 -1 -1 по сезону 1024.0 1014.9
Ю 3 17 км н/о +4.0 +3.1 94 0 0 по сезону 1023.3 1014.3
Ю 7 22 км н/о +4.8 +3.3 90 -1 -1 по сезону 1022.5 1013.5
Ю 5 25 км н/о +5.7 +3.4 85 +1 +1 по сезону 1021.5 1012.5
Ю 5 35 км н/о +6.3 +3.5 82 +2 +2 по сезону 1020.5 1011.5
Ю 5 30 км н/о +6.6 +4.2 85 +3 +3 по сезону 1019.5 1010.6
Ю 6 45 км н/о +7.3 +4.3 81 +3 +3 по сезону 1018.6 1009.7
Ю 5 40 км н/о +6.4 +3.9 84 +2 +2 по сезону 1018.0 1009.1
Ю 6 40 км н/о +6.0 +4.0 87 +1 +1 по сезону 1017.6 1008.7
Ю 5 45 км н/о +6.5 +4.0 84 +2 +2 по сезону 1017.6 1008.7 +7.4
Ю 4 35 км н/о +6.0 +4.0 87 +2 +2 по сезону 1016.9 1008.0
ЮВ 5 28 км н/о +4.5 +3.3 92 -0 -0 по сезону 1016.5 1007.5
Ю 6 24 км н/о +4.3 +3.2 93 -1 -1 по сезону 1015.7 1006.7
ЮВ 4 30 км н/о +4.2 +3.1 93 -0 -0 по сезону 1015.3 1006.3
ЮВ 5 26 км н/о +4.5 +3.2 91 -1 -1 по сезону 1014.8 1005.9
Ю 4 45 км н/о +5.3 +3.6 89 +1 +1 по сезону 1014.6 1005.6
ЮВ 5 35 км н/о +5.5 +3.9 89 +1 +1 по сезону 1014.0 1005.1
В 3 30 км н/о +6.0 +4.0 87 +3 +3 по сезону 1013.4 1004.5
В 3 30 км н/о +6.0 +4.3 89 +3 +3 по сезону 1012.7 1003.9
ЮВ 5 7000 м дымка н/о +5.9 +5.1 95 +2 +2 по сезону 1012.0 1003.2
Ю 5 12 км н/о +6.4 +5.9 97 +2 +2 по сезону 1011.7 1002.8
Ю 8 20 км н/о +6.7 +6.2 97 +1 +1 по сезону 1011.1 1002.3 +4.0
Ю 7 15 км слаб. дождь н/о +7.0 +6.3 95 +2 +2 по сезону 1011.1 1002.3
Ю 7 23 км слаб. морось н/о +7.1 +6.6 97 +2 +2 по сезону 1011.4 1002.6
ЮЗ 4 6000 м слаб. морось с дождем н/о +7.4 +7.1 98 +4 +4 по сезону 1012.4 1003.6
ЮЗ 4 45 км в посл. час дождь н/о +7.8 +7.3 97 +4 +4 по сезону 1013.1 1004.2
ЮЗ 2 23 км н/о +8.4 +7.0 91 +6 +6 тепло 1013.4 1004.6
З 3 21 км н/о +9.1 +5.9 80 +7 +7 тепло 1013.3 1004.5 0.4
З 4 18 км н/о +8.9 +4.8 75 +6 +6 тепло 1013.4 1004.6
ЮЗ 4 20 км н/о +8.9 +4.3 73 +6 +6 тепло 1014.0 1005.2
ЮЗ 4 22 км н/о +8.4 +4.3 75 +5 +5 тепло 1014.1 1005.2
ЮЗ 3 11 км слаб. ливневой дождь н/о +7.7 +4.1 78 +5 +5 тепло 1014.4 1005.6
ЮЗ 3 26 км в посл. час дождь н/о +6.5 +3.7 82 +3 +3 по сезону 1014.6 1005.7
Ю 3 19 км в посл. час дождь н/о +5.0 +3.4 89 +1 +1 по сезону 1014.9 1006.0 +9.6 0.4
ЮВ 3 23 км н/о +5.7 +4.3 91 +3 +3 по сезону 1015.2 1006.3
Ю 2 27 км н/о +5.7 +4.1 89 +3 +3 по сезону 1015.1 1006.2
Ю 3 27 км н/о +5.3 +3.7 89 +2 +2 по сезону 1015.2 1006.3
ЮЗ 3 30 км н/о +5.3 +3.5 88 +2 +2 по сезону 1015.4 1006.4
Ю 3 27 км н/о +4.0 +3.1 94 0 0 по сезону 1015.4 1006.4
Ю 3 23 км н/о +4.6 +3.4 92 +1 +1 по сезону 1015.1 1006.1
ЮЗ 3 35 км н/о +4.8 +2.9 87 +2 +2 по сезону 1014.6 1005.7
Ю 3 30 км н/о +4.2 +2.8 91 +1 +1 по сезону 1014.2 1005.3
Ю 4 30 км н/о +5.2 +4.0 92 +1 +1 по сезону 1014.0 1005.1
Ю 4 25 км н/о +4.7 +4.0 95 0 0 по сезону 1013.7 1004.7
Ю 4 19 км н/о +4.8 +4.4 97 +1 +1 по сезону 1012.4 1003.5
Ю 7 19 км н/о +5.3 +4.7 96 -0 -0 по сезону 1011.8 1002.9 +3.6 0.4
ЮВ 6 21 км н/о +5.5 +4.9 96 0 0 по сезону 1010.8 1001.9
Ю 6 12 км слаб. морось н/о +5.9 +5.5 97 +1 +1 по сезону 1009.5 1000.7
Ю 7 6000 м слаб. морось н/о +6.4 +5.7 95 +1 +1 по сезону 1008.5 999.7
Ю 10-15
{15}
10 км слаб. морось н/о +6.7 +6.1 96 +1 +1 по сезону 1006.6 997.8
Ю 7
{14}
8000 м слаб. морось н/о +7.1 +6.8 98 +2 +2 по сезону 1006.1 997.3
Ю 6 10 км слаб. дождь н/о +8.3 +8.1 99 +4 +4 по сезону 1004.1 995.4 1
Ю 8 18 км в посл. час дождь н/о +9.7 +9.4 98 +5 +5 тепло 1002.9 994.2
Ю 6 45 км в посл. час дождь н/о +10.9 +10.6 98 +8 +8 тепло 1001.6 993.0
ЮЗ 5 13 км н/о +12.3 +11.6 95 +10 +10 тепло 1000.5 991.9
ЮЗ 6
{13}
7000 м слаб. морось н/о +12.3 +10.9 91 +9 +9 тепло 1000.3 991.7
ЮЗ 7
{13}
14 км дождь н/о +11.4 +10.6 95 +8 +8 тепло 1000.3 991.7
З 6 4100 м слаб. морось н/о +11.5 +11.0 97 +8 +8 тепло 1000.5 991.9 +12.7 4
З 4 4000 м слаб. морось н/о +11.3 +11.0 98 +9 +9 тепло 1001.0 992.4
ЮЗ 4 3600 м слаб. морось н/о +11.4 +11.1 98 +9 +9 тепло 1001.0 992.4
ЮЗ 3 6000 м в посл. час морось н/о +11.5 +11.1 97 +10 +10 тепло 1001.0 992.4
Ю 3 5000 м морось н/о +11.3 +10.9 97 +9 +9 тепло 1001.1 992.5
ЮЗ 3 3800 м слаб. морось н/о +11.2 +10.9 98 +9 +9 тепло 1000.6 992.0
Ю 4 10 км слаб. морось н/о +11.3 +10.9 97 +9 +9 тепло 1000.1 991.5 3
Местоположение метеостанции Томастаун (Великобритания): широта 54.33 долгота -7.59 высота над уровнем моря 72 м.
В архиве по умолчанию представлена погода в Томастауне за последнюю неделю. Архивные данные за месяц целиком и за предыдущие месяцы, начиная с января 2011 года, Вы можете получить, выбрав интересующий диапазон дат из раскрывающегося списка и нажав кнопку "Найти!".
*Определитесь, кто Вы:
Внимание! Время в таблицах - всемирное. Для получения местного времени необходимо прибавить поправку, которая равна 0 ч.
Смотрите также архив погоды в соседних городах и на ближайших метеорологических станциях:
Партнеры нашего сайта:      
Пояснения к столбцам:
  • Ветер - указаны скорость ветра в м/с - средняя за 10 мин, порывы в срок и между сроками (в фигурных скобках) и направление, откуда дует ветер: С - северный,
  • СВ - северо-восточный, В - восточный, ЮВ - юго-восточный, Ю - южный, ЮЗ - юго-западный, З - западный, СЗ - северо-западный.
  • Видимость - горизонтальная дальность видимости в метрах или километрах. При видимости от 1 до 10 км при отсутствии осадков обычно наблюдается дымка, при ухудшении видимости до 1 км и менее - туман. В сухую погоду видимость может ухудшаться дымом, пылью или мглою.
  • Явления - указаны атмосферные явления, наблюдавшиеся в срок или в последний час перед сроком; фигурными скобками обозначены явления, наблюдавшиеся между сроками (за 1-3 часа до срока); квадратными скобками обозначены град или гололедные отложения с указанием их диаметра в мм.
  • Облачность - указаны через наклонную черту общая и нижняя облачность в баллах и высота нижней границы облаков в метрах; квадратными скобками обозначены формы облаков: Ci - перистые, Cs - перисто-слоистые, Cc - перисто-кучевые, Ac - высококучевые, As - высокослоистые, Sc - слоисто-кучевые, Ns - слоисто-дождевые, Cu - кучевые, Cb - кучево-дождевые. Подробнее классификацию облаков см. в Атласе облаков (PDF).
  • T - Температура воздуха - температура, измеренная на высоте 2 м над землей.
  • Td - Температура точки росы - температура, при понижении до которой содержащийся в воздухе водяной пар достигнет насыщения.
  • f - Относительная влажность воздуха - влажноcть воздуха, измеренная на высоте 2 м над землей.
  • Te - Эффективная температура - температура, которую ощущает одетый по сезону человек в тени. Характеристика душности погоды. При расчете учитывается влияние влажности воздуха и скорости ветра на теплоощущения человека.
  • Tes - Эффективная температура на солнце - температура, которую ощущает человек, с поправкой на солнечный нагрев. Характеристика знойности погоды. Зависит от высоты солнца над горизонтом, облачности и скорости ветра. Ночью, в пасмурную погоду, а также при ветре 12 м/с и более поправка равна нулю.
  • P - Атмосферное давление - приведенное к уровню моря атмосферное давление.
  • Po - Атмосферное давление - измеренное на уровне метеостанции атмосферное давление.
  • Tmin - Минимальная температура - минимум температуры воздуха на высоте 2 м над землей.
  • Tmax - Максимальная температура - максимум температуры воздуха на высоте 2 м над землей.
  • R - Количество осадков - Количество выпавших осадков за период времени, мм. При наведении курсора мыши на число - период времени, за который выпало указанное количество осадков.
  • R24 - Количество осадков - Количество выпавших осадков за 24 часа, мм.
  • S - Снежный покров - Высота снежного покрова, см. При наведении курсора мыши на число - состояние снежного покрова и степень покрытия местности в баллах.